Granite Falls, MN

8:18 PM CST on December 03, 2016 (GMT -0600)
Granite Falls

Weather History for KGDB - December, 2012

Change the Weather History Date:

Saturday, December 1, 2012

  Actual Average (KMVE) Record (KMVE)
Temperature  
Mean Temperature 40 °F -  
Max Temperature 52 °F 32 °F 62 °F (1998)
Min Temperature 26 °F 15 °F -7 °F (2014)
Degree Days  
Heating Degree Days 26    
Moisture  
Dew Point 32 °F    
Average Humidity 79    
Maximum Humidity 96    
Minimum Humidity 51    
Precipitation  
Precipitation 0.00 in - - ()
Sea Level Pressure  
Sea Level Pressure 29.80 in    
Wind  
Wind Speed 10 mph (SSW)    
Max Wind Speed 20 mph    
Max Gust Speed 23 mph    
Visibility 6 miles    
Events      
Averages and records for this station are not official NWS values.
T = Trace of Precipitation, MM = Missing Value Source: NWS Daily Summary

Daily Weather History Graph

Daily Weather History Graph

Search for Another Location

Airport or City:

Trip Planner

Search our weather history database for the weather conditions in past years. The results will help you decide how hot, cold, wet, or windy it might be!

Date:

Astronomy

Dec. 01, 2012 Rise Set
Actual Time 7:39 AM CST 4:42 PM CST
Civil Twilight 7:07 AM CST 5:15 PM CST
Nautical Twilight 6:30 AM CST 5:52 PM CST
Astronomical Twilight 5:55 AM CST 6:27 PM CST
Moon 7:35 PM CST (12/1) 9:51 AM CST (12/1)
Length of Visible Light 10h 08m
Length of Day
9h 02m
Waning Gibbous, 91% of the Moon is Illuminated
Dec 1
Waning Gibbous
Dec 6
Last Quarter
Dec 13
New
Dec 19
First Quarter
Dec 28
Full

Hourly Weather History & Observations

Time (CST) Temp. Windchill Dew Point Humidity Pressure Visibility Wind Dir Wind Speed Gust Speed Precip Events Conditions
12:11 AM 32.5 °F 24.2 °F 31.1 °F 94% 29.96 in 3.0 mi ESE 10.4 mph 18.4 mph N/A   Overcast
12:31 AM 32.2 °F 21.8 °F 30.7 °F 94% 29.95 in 3.0 mi SE 15.0 mph 19.6 mph N/A   Mist
12:51 AM 32.2 °F 21.4 °F 30.7 °F 94% 29.94 in 3.0 mi SE 16.1 mph - N/A   Mist
1:11 AM 32.2 °F 21.4 °F 30.7 °F 94% 29.93 in 2.5 mi SE 16.1 mph 19.6 mph N/A   Clear
1:31 AM 32.2 °F 21.8 °F 31.1 °F 96% 29.91 in 2.5 mi SE 15.0 mph 21.9 mph N/A   Clear
1:51 AM 32.9 °F 23.2 °F 31.6 °F 95% 29.89 in 3.0 mi ESE 13.8 mph - N/A   Clear
2:11 AM 32.9 °F 22.0 °F 31.5 °F 94% 29.89 in 3.0 mi SE 17.3 mph 23.0 mph N/A   Clear
2:31 AM 32.9 °F 22.8 °F 31.1 °F 93% 29.88 in 3.0 mi ESE 15.0 mph 19.6 mph N/A   Clear
2:51 AM 32.9 °F 22.4 °F 31.1 °F 93% 29.87 in 3.0 mi SE 16.1 mph 21.9 mph N/A   Clear
3:11 AM 32.4 °F 21.7 °F 31.1 °F 95% 29.86 in 3.0 mi ESE 16.1 mph - N/A   Clear
3:31 AM 32.2 °F 22.3 °F 30.7 °F 94% 29.85 in 3.0 mi ESE 13.8 mph - N/A   Clear
3:51 AM 32.2 °F 21.8 °F 30.9 °F 95% 29.83 in 3.0 mi ESE 15.0 mph - N/A   Clear
4:11 AM 32.2 °F 21.8 °F 30.7 °F 94% 29.81 in 3.0 mi ESE 15.0 mph 20.7 mph N/A   Clear
4:31 AM 32.7 °F 23.0 °F 31.1 °F 94% 29.80 in 3.0 mi SE 13.8 mph - N/A   Clear
4:51 AM 32.7 °F 22.1 °F 31.1 °F 94% 29.78 in 3.0 mi SE 16.1 mph 20.7 mph N/A   Clear
5:11 AM 33.3 °F 21.8 °F 31.3 °F 92% 29.77 in 3.0 mi SE 19.6 mph 23.0 mph N/A   Clear
5:31 AM 33.3 °F 22.8 °F 31.3 °F 92% 29.75 in 3.0 mi SE 16.1 mph - N/A   Clear
5:50 AM 33.6 °F 23.7 °F 31.6 °F 92% 29.74 in 4.0 mi SE 15.0 mph 23.0 mph N/A   Clear
6:11 AM 33.8 °F 24.3 °F 31.6 °F 92% 29.73 in 4.0 mi SE 13.8 mph - N/A   Clear
6:31 AM 34.7 °F 25.5 °F 32.0 °F 90% 29.71 in 4.0 mi SE 13.8 mph 17.3 mph N/A   Clear
6:51 AM 34.7 °F - 32.0 °F 90% 29.74 in 5.0 mi Calm Calm - N/A   Clear
7:11 AM 34.9 °F - 32.0 °F 89% 29.75 in 4.0 mi Calm Calm - N/A   Clear
7:31 AM 35.1 °F - 32.2 °F 89% 29.76 in 5.0 mi Calm Calm - N/A   Clear
7:51 AM 33.6 °F - 31.5 °F 92% 29.76 in 3.0 mi Calm Calm - N/A   Clear
8:11 AM 34.5 °F - 32.0 °F 90% 29.74 in 2.5 mi Calm Calm - N/A   Clear
8:31 AM 35.6 °F - 32.9 °F 90% 29.75 in 4.0 mi Calm Calm - N/A   Clear
8:51 AM 36.9 °F - 33.8 °F 89% 29.75 in 4.0 mi Calm Calm - N/A   Clear
9:11 AM 38.3 °F 31.9 °F 34.9 °F 87% 29.75 in 5.0 mi SE 9.2 mph - N/A   Clear
9:31 AM 38.3 °F 33.2 °F 35.1 °F 88% 29.75 in 4.0 mi SE 6.9 mph - N/A   Clear
9:51 AM 39.2 °F 34.2 °F 36.0 °F 88% 29.75 in 4.0 mi SSE 6.9 mph - N/A   Clear
10:11 AM 40.5 °F 36.5 °F 37.0 °F 88% 29.76 in 5.0 mi SSE 5.8 mph - N/A   Scattered Clouds
10:31 AM 41.4 °F 38.4 °F 37.9 °F 88% 29.75 in 5.0 mi SSE 4.6 mph - N/A   Mostly Cloudy
10:51 AM 42.6 °F 37.2 °F 37.9 °F 83% 29.74 in 5.0 mi South 9.2 mph - N/A   Haze
11:11 AM 43.7 °F 39.1 °F 37.8 °F 80% 29.74 in 5.0 mi South 8.1 mph - N/A   Haze
11:30 AM 45.7 °F 41.5 °F 38.1 °F 75% 29.74 in 5.0 mi SW 8.1 mph - N/A   Haze
11:51 AM 47.3 °F - 37.6 °F 69% 29.73 in 7.0 mi SW 6.9 mph - N/A   Clear
12:11 PM 47.5 °F - 36.9 °F 67% 29.72 in 7.0 mi SW 8.1 mph - N/A   Clear
12:30 PM 48.7 °F - 36.5 °F 63% 29.71 in 7.0 mi WSW 8.1 mph - N/A   Clear
12:51 PM 49.3 °F - 36.0 °F 60% 29.72 in 7.0 mi West 9.2 mph - N/A   Clear
1:11 PM 50.2 °F - 35.6 °F 57% 29.72 in 7.0 mi West 8.1 mph - N/A   Clear
1:31 PM 50.9 °F - 35.4 °F 55% 29.71 in 7.0 mi West 8.1 mph - N/A   Clear
1:51 PM 51.6 °F - 35.1 °F 53% 29.72 in 7.0 mi West 8.1 mph - N/A   Clear
2:11 PM 52.3 °F - 34.9 °F 51% 29.71 in 7.0 mi West 10.4 mph - N/A   Clear
2:31 PM 52.0 °F - 34.3 °F 51% 29.71 in 7.0 mi WNW 10.4 mph - N/A   Clear
2:51 PM 51.3 °F - 34.0 °F 52% 29.72 in 7.0 mi West 9.2 mph - N/A   Clear
3:11 PM 50.7 °F - 34.0 °F 53% 29.72 in 7.0 mi West 8.1 mph - N/A   Clear
3:31 PM 50.9 °F - 34.2 °F 53% 29.74 in 7.0 mi West 3.5 mph - N/A   Clear
3:51 PM 49.8 °F - 33.8 °F 54% 29.75 in 7.0 mi WNW 6.9 mph - N/A   Clear
4:11 PM 48.2 °F - 33.4 °F 57% 29.75 in 7.0 mi NW 3.5 mph - N/A   Clear
4:31 PM 46.4 °F - 32.5 °F 59% 29.76 in 7.0 mi Calm Calm - N/A   Clear
4:51 PM 44.2 °F 41.8 °F 32.0 °F 62% 29.76 in 7.0 mi NW 4.6 mph - N/A   Clear
5:10 PM 43.0 °F 38.8 °F 31.6 °F 64% 29.77 in 10.0 mi NW 6.9 mph - N/A   Clear
5:31 PM 43.7 °F 40.3 °F 31.8 °F 63% 29.78 in 10.0 mi NW 5.8 mph - N/A   Clear
5:51 PM 38.7 °F 34.3 °F 29.5 °F 70% 29.79 in 10.0 mi NW 5.8 mph - N/A   Clear
6:10 PM 41.9 °F 37.5 °F 31.5 °F 66% 29.80 in 10.0 mi NW 6.9 mph - N/A   Clear
6:31 PM 39.9 °F 35.1 °F 30.2 °F 68% 29.80 in 7.0 mi NW 6.9 mph - N/A   Clear
6:51 PM 41.9 °F 36.9 °F 31.6 °F 67% 29.81 in 7.0 mi NW 8.1 mph - N/A   Clear
7:11 PM 42.4 °F 38.1 °F 31.8 °F 66% 29.81 in 7.0 mi NW 6.9 mph - N/A   Clear
7:51 PM 39.7 °F 37.6 °F 30.9 °F 71% 29.82 in 7.0 mi WNW 3.5 mph - N/A   Scattered Clouds
8:11 PM 38.3 °F - 30.6 °F 74% 29.81 in 10.0 mi Calm Calm - N/A   Mostly Cloudy
8:31 PM 37.6 °F 31.0 °F 30.4 °F 75% 29.84 in 7.0 mi WNW 9.2 mph - N/A   Mostly Cloudy
8:51 PM 38.1 °F - 30.2 °F 73% 29.84 in 7.0 mi Calm Calm - N/A   Mostly Cloudy
9:11 PM 36.3 °F 31.6 °F 29.1 °F 75% 29.84 in 7.0 mi West 5.8 mph - N/A   Scattered Clouds
9:31 PM 33.4 °F 28.1 °F 27.7 °F 79% 29.86 in 7.0 mi WNW 5.8 mph - N/A   Clear
9:51 PM 33.3 °F 28.9 °F 27.5 °F 79% 29.86 in 7.0 mi WNW 4.6 mph - N/A   Clear
10:11 PM 31.6 °F 28.3 °F 27.3 °F 84% 29.87 in 10.0 mi WNW 3.5 mph - N/A   Clear
10:31 PM 29.5 °F 23.4 °F 25.0 °F 83% 29.87 in 7.0 mi WNW 5.8 mph - N/A   Clear
10:51 PM 28.4 °F - 24.4 °F 85% 29.88 in 7.0 mi Calm Calm - N/A   Clear
11:11 PM 29.5 °F - 25.3 °F 85% 29.89 in 7.0 mi Calm Calm - N/A   Clear
11:31 PM 27.5 °F - 23.4 °F 84% 29.89 in 10.0 mi Calm Calm - N/A   Clear
11:50 PM 26.2 °F - 23.4 °F 89% 29.90 in 7.0 mi Calm Calm - N/A   Clear